Time,TemperatureF,DewpointF,PressureIn,WindDirection,WindDirectionDegrees,WindSpeedMPH,WindSpeedGustMPH,Humidity,HourlyPrecipIn,Conditions,Clouds,dailyrainin,SoftwareType,DateUTC
2013-03-05 00:00:00,31.3,-5.1,29.91,NW,318,6.3,6.3,20,0.00,,---,0.00,VWS V14.01,2013-03-05 05:00:00,
2013-03-05 00:02:00,31.5,-5.0,29.91,NNW,337,6.3,8.3,20,0.00,,---,0.00,VWS V14.01,2013-03-05 05:02:00,
2013-03-05 00:07:00,31.1,-5.3,29.91,North,353,5.8,5.8,20,0.00,,---,0.00,VWS V14.01,2013-03-05 05:07:00,
2013-03-05 00:11:00,31.5,-5.0,29.91,NNW,337,3.1,8.3,20,0.00,,---,0.00,VWS V14.01,2013-03-05 05:11:00,
2013-03-05 00:16:00,31.5,-5.0,29.91,NW,317,7.2,8.7,20,0.00,,---,0.00,VWS V14.01,2013-03-05 05:16:00,
2013-03-05 00:21:00,31.5,-5.0,29.91,WNW,295,3.6,4.0,20,0.00,,---,0.00,VWS V14.01,2013-03-05 05:21:00,
2013-03-05 00:26:00,31.6,-4.8,29.88,West,274,8.1,10.1,20,0.00,,---,0.00,VWS V14.01,2013-03-05 05:26:00,
2013-03-05 00:31:00,31.8,-4.7,29.88,North,350,5.8,8.3,20,0.00,,---,0.00,VWS V14.01,2013-03-05 05:31:00,
2013-03-05 00:36:00,31.5,-5.0,29.88,NNW,333,9.6,9.6,20,0.00,,---,0.00,VWS V14.01,2013-03-05 05:36:00,
2013-03-05 00:41:00,31.3,-5.1,29.91,NW,318,5.4,8.1,20,0.00,,---,0.00,VWS V14.01,2013-03-05 05:41:00,
2013-03-05 00:46:00,31.5,-5.0,29.91,North,353,3.6,10.5,20,0.00,,---,0.00,VWS V14.01,2013-03-05 05:46:00,
2013-03-05 00:51:00,30.9,-5.4,29.91,NNW,345,3.6,8.3,20,0.00,,---,0.00,VWS V14.01,2013-03-05 05:51:00,
2013-03-05 00:56:00,30.9,-5.4,29.91,NW,322,4.0,8.3,20,0.00,,---,0.00,VWS V14.01,2013-03-05 05:56:00,
2013-03-05 01:00:00,30.9,-5.4,29.91,North,0,5.8,5.8,20,0.00,,---,0.00,VWS V14.01,2013-03-05 06:00:00,
2013-03-05 01:05:00,31.1,-5.3,29.91,WNW,301,5.4,7.2,20,0.00,,---,0.00,VWS V14.01,2013-03-05 06:05:00,
2013-03-05 01:10:00,31.1,-5.3,29.91,NW,321,6.3,7.6,20,0.00,,---,0.00,VWS V14.01,2013-03-05 06:10:00,
2013-03-05 01:15:00,31.3,-5.1,29.91,NW,308,7.6,11.0,20,0.00,,---,0.00,VWS V14.01,2013-03-05 06:15:00,
2013-03-05 01:20:00,31.1,-5.3,29.91,WNW,300,8.1,8.3,20,0.00,,---,0.00,VWS V14.01,2013-03-05 06:20:00,
2013-03-05 01:25:00,30.6,-5.7,29.91,NNW,337,8.3,8.3,20,0.00,,---,0.00,VWS V14.01,2013-03-05 06:25:00,
2013-03-05 01:30:00,31.1,-5.3,29.91,North,0,3.1,5.4,20,0.00,,---,0.00,VWS V14.01,2013-03-05 06:30:00,
2013-03-05 01:35:00,30.7,-5.6,29.91,NW,320,6.3,8.3,20,0.00,,---,0.00,VWS V14.01,2013-03-05 06:35:00,
2013-03-05 01:40:00,30.7,-5.6,29.91,NNW,328,12.3,12.3,20,0.00,,---,0.00,VWS V14.01,2013-03-05 06:40:00,
2013-03-05 01:45:00,31.3,-5.1,29.91,NNW,327,8.1,11.0,20,0.00,,---,0.00,VWS V14.01,2013-03-05 06:45:00,
2013-03-05 01:50:00,30.9,-5.4,29.91,WNW,294,7.6,10.1,20,0.00,,---,0.00,VWS V14.01,2013-03-05 06:50:00,
2013-03-05 01:55:00,30.9,-5.4,29.91,NW,314,3.6,7.6,20,0.00,,---,0.00,VWS V14.01,2013-03-05 06:55:00,
2013-03-05 02:00:00,30.2,-6.0,29.94,NW,315,3.1,3.6,20,0.00,,---,0.00,VWS V14.01,2013-03-05 07:00:00,
2013-03-05 02:05:00,30.6,-5.7,29.94,West,268,3.6,5.8,20,0.00,,---,0.00,VWS V14.01,2013-03-05 07:05:00,
2013-03-05 02:10:00,31.1,-5.3,29.94,NW,312,5.8,8.3,20,0.00,,---,0.00,VWS V14.01,2013-03-05 07:10:00,
2013-03-05 02:15:00,31.1,-5.3,29.94,NNW,348,5.8,8.7,20,0.00,,---,0.00,VWS V14.01,2013-03-05 07:15:00,
2013-03-05 02:20:00,30.7,-5.6,29.94,West,281,5.4,7.6,20,0.00,,---,0.00,VWS V14.01,2013-03-05 07:20:00,
2013-03-05 02:25:00,30.9,-5.4,29.91,NW,314,4.9,8.7,20,0.00,,---,0.00,VWS V14.01,2013-03-05 07:25:00,
2013-03-05 02:30:00,31.1,-5.3,29.91,NW,324,5.4,8.1,20,0.00,,---,0.00,VWS V14.01,2013-03-05 07:30:00,
2013-03-05 02:35:00,30.9,-5.4,29.91,NW,315,6.3,8.7,20,0.00,,---,0.00,VWS V14.01,2013-03-05 07:35:00,
2013-03-05 02:40:00,30.7,-5.6,29.91,North,357,5.8,6.3,20,0.00,,---,0.00,VWS V14.01,2013-03-05 07:40:00,
2013-03-05 02:45:00,30.6,-5.7,29.94,NNW,334,6.3,8.1,20,0.00,,---,0.00,VWS V14.01,2013-03-05 07:45:00,
2013-03-05 02:50:00,30.7,-5.6,29.94,West,263,4.0,7.6,20,0.00,,---,0.00,VWS V14.01,2013-03-05 07:50:00,
2013-03-05 02:55:00,31.1,-5.3,29.94,NW,310,5.4,10.1,20,0.00,,---,0.00,VWS V14.01,2013-03-05 07:55:00,
2013-03-05 03:00:00,30.7,-5.6,29.94,NW,321,5.4,7.6,20,0.00,,---,0.00,VWS V14.01,2013-03-05 08:00:00,
2013-03-05 03:05:00,30.2,-6.0,29.94,NNW,346,3.1,6.7,20,0.00,,---,0.00,VWS V14.01,2013-03-05 08:05:00,
2013-03-05 03:10:00,30.6,-5.7,29.94,NW,311,5.8,6.3,20,0.00,,---,0.00,VWS V14.01,2013-03-05 08:10:00,
2013-03-05 03:15:00,30.6,-5.7,29.94,North,0,5.4,8.3,20,0.00,,---,0.00,VWS V14.01,2013-03-05 08:15:00,
2013-03-05 03:20:00,30.4,-5.9,29.94,NW,318,7.6,8.1,20,0.00,,---,0.00,VWS V14.01,2013-03-05 08:20:00,
2013-03-05 03:25:00,30.6,-5.7,29.94,WNW,299,7.2,10.5,20,0.00,,---,0.00,VWS V14.01,2013-03-05 08:25:00,
2013-03-05 03:30:00,30.6,-5.7,29.91,NW,305,8.1,10.1,20,0.00,,---,0.00,VWS V14.01,2013-03-05 08:30:00,
2013-03-05 03:35:00,30.0,-6.2,29.91,North,353,4.9,5.4,20,0.00,,---,0.00,VWS V14.01,2013-03-05 08:35:00,
2013-03-05 03:40:00,30.4,-5.9,29.91,NNW,345,7.6,7.6,20,0.00,,---,0.00,VWS V14.01,2013-03-05 08:40:00,
2013-03-05 03:45:00,29.8,-6.3,29.94,NNW,342,6.7,6.7,20,0.00,,---,0.00,VWS V14.01,2013-03-05 08:45:00,
2013-03-05 03:50:00,30.2,-6.0,29.94,NNE,12,5.8,5.8,20,0.00,,---,0.00,VWS V14.01,2013-03-05 08:50:00,
2013-03-05 03:55:00,30.2,-6.0,29.94,NNW,348,3.6,6.7,20,0.00,,---,0.00,VWS V14.01,2013-03-05 08:55:00,
2013-03-05 04:00:00,30.2,-6.0,29.94,NNW,338,9.6,9.6,20,0.00,,---,0.00,VWS V14.01,2013-03-05 09:00:00,
2013-03-05 04:05:00,29.7,-3.6,29.94,WNW,286,2.7,3.1,23,0.00,,---,0.00,VWS V14.01,2013-03-05 09:05:00,
2013-03-05 04:10:00,29.7,-3.6,29.94,NNW,334,4.0,5.8,23,0.00,,---,0.00,VWS V14.01,2013-03-05 09:10:00,
2013-03-05 04:15:00,29.8,-3.4,29.94,NW,313,6.3,6.3,23,0.00,,---,0.00,VWS V14.01,2013-03-05 09:15:00,
2013-03-05 04:20:00,30.0,-3.3,29.94,WNW,297,8.1,10.5,23,0.00,,---,0.00,VWS V14.01,2013-03-05 09:20:00,
2013-03-05 04:25:00,29.8,-3.4,29.94,WNW,300,7.6,7.6,23,0.00,,---,0.00,VWS V14.01,2013-03-05 09:25:00,
2013-03-05 04:30:00,29.8,-3.4,29.94,NNW,344,4.0,5.8,23,0.00,,---,0.00,VWS V14.01,2013-03-05 09:30:00,
2013-03-05 04:35:00,29.7,-3.6,29.94,NW,324,3.1,4.0,23,0.00,,---,0.00,VWS V14.01,2013-03-05 09:35:00,
2013-03-05 04:40:00,29.8,-3.4,29.94,WNW,300,5.4,8.3,23,0.00,,---,0.00,VWS V14.01,2013-03-05 09:40:00,
2013-03-05 04:45:00,29.8,-3.4,29.94,NNW,333,8.1,8.1,23,0.00,,---,0.00,VWS V14.01,2013-03-05 09:45:00,
2013-03-05 04:50:00,29.5,-3.7,29.94,WNW,295,4.0,4.0,23,0.00,,---,0.00,VWS V14.01,2013-03-05 09:50:00,
2013-03-05 04:55:00,30.0,-3.3,29.94,NNW,332,4.0,4.0,23,0.00,,---,0.00,VWS V14.01,2013-03-05 09:55:00,
2013-03-05 05:00:00,29.5,-3.7,29.97,North,353,4.0,4.0,23,0.00,,---,0.00,VWS V14.01,2013-03-05 10:00:00,
2013-03-05 05:05:00,29.3,-3.9,29.97,NW,317,4.9,4.9,23,0.00,,---,0.00,VWS V14.01,2013-03-05 10:05:00,
2013-03-05 05:10:00,29.3,-3.9,29.97,North,353,5.8,5.8,23,0.00,,---,0.00,VWS V14.01,2013-03-05 10:10:00,
2013-03-05 05:15:00,29.5,-3.7,29.91,NNW,345,6.3,8.3,23,0.00,,---,0.00,VWS V14.01,2013-03-05 10:15:00,
2013-03-05 05:20:00,29.5,-3.7,29.91,NW,325,4.0,4.9,23,0.00,,---,0.00,VWS V14.01,2013-03-05 10:20:00,
2013-03-05 05:25:00,29.5,-3.7,29.91,NNW,344,3.6,5.4,23,0.00,,---,0.00,VWS V14.01,2013-03-05 10:25:00,
2013-03-05 05:30:00,29.1,-4.1,29.94,NNW,330,5.4,6.7,23,0.00,,---,0.00,VWS V14.01,2013-03-05 10:30:00,
2013-03-05 05:35:00,28.6,-4.5,29.94,NW,312,3.1,5.4,23,0.00,,---,0.00,VWS V14.01,2013-03-05 10:35:00,
2013-03-05 05:40:00,28.8,-2.6,29.94,NNW,330,4.0,4.0,25,0.00,,---,0.00,VWS V14.01,2013-03-05 10:40:00,
2013-03-05 05:45:00,28.9,-2.5,29.97,NW,306,3.1,3.1,25,0.00,,---,0.00,VWS V14.01,2013-03-05 10:45:00,
2013-03-05 05:50:00,28.2,-2.2,29.97,NNW,332,0.0,3.1,26,0.00,,---,0.00,VWS V14.01,2013-03-05 10:50:00,
2013-03-05 05:55:00,28.9,-2.5,29.97,NW,324,5.4,6.3,25,0.00,,---,0.00,VWS V14.01,2013-03-05 10:55:00,
2013-03-05 06:00:00,29.1,-2.3,29.97,NNW,341,5.8,8.1,25,0.00,,---,0.00,VWS V14.01,2013-03-05 11:00:00,
2013-03-05 06:05:00,28.8,-2.6,29.97,NW,322,5.8,5.8,25,0.00,,---,0.00,VWS V14.01,2013-03-05 11:05:00,
2013-03-05 06:10:00,28.6,-2.8,29.97,NW,315,4.0,5.4,25,0.00,,---,0.00,VWS V14.01,2013-03-05 11:10:00,
2013-03-05 06:15:00,28.8,-2.6,29.94,NW,310,4.9,6.3,25,0.00,,---,0.00,VWS V14.01,2013-03-05 11:15:00,
2013-03-05 06:20:00,28.8,-2.6,29.94,NNW,327,4.5,5.8,25,0.00,,---,0.00,VWS V14.01,2013-03-05 11:20:00,
2013-03-05 06:25:00,28.4,-2.1,29.94,NW,320,3.6,5.4,26,0.00,,---,0.00,VWS V14.01,2013-03-05 11:25:00,
2013-03-05 06:30:00,28.0,-0.9,29.97,WNW,301,3.6,5.4,28,0.00,,---,0.00,VWS V14.01,2013-03-05 11:30:00,
2013-03-05 06:35:00,28.2,-0.7,29.97,NW,308,3.6,4.5,28,0.00,,---,0.00,VWS V14.01,2013-03-05 11:35:00,
2013-03-05 06:40:00,28.4,-0.5,29.97,NNW,335,3.1,5.4,28,0.00,,---,0.00,VWS V14.01,2013-03-05 11:40:00,
2013-03-05 06:45:00,28.4,-0.5,29.94,NNW,327,3.1,3.1,28,0.00,,---,0.00,VWS V14.01,2013-03-05 11:45:00,
2013-03-05 06:50:00,28.8,-2.6,29.94,NNW,329,2.2,3.1,25,0.00,,---,0.00,VWS V14.01,2013-03-05 11:50:00,
2013-03-05 06:54:00,29.1,-2.3,29.94,NW,322,4.0,4.0,25,0.00,,---,0.00,VWS V14.01,2013-03-05 11:54:00,
2013-03-05 06:59:00,29.5,-3.7,29.91,NW,324,2.7,4.0,23,0.00,,---,0.00,VWS V14.01,2013-03-05 11:59:00,
2013-03-05 07:04:00,30.0,-3.3,29.91,NNW,334,4.0,4.0,23,0.00,,---,0.00,VWS V14.01,2013-03-05 12:04:00,
2013-03-05 07:09:00,30.6,-2.8,29.91,NNW,336,4.9,4.9,23,0.00,,---,0.00,VWS V14.01,2013-03-05 12:09:00,
2013-03-05 07:14:00,31.1,-2.4,29.88,NW,309,5.4,5.4,23,0.00,,---,0.00,VWS V14.01,2013-03-05 12:14:00,
2013-03-05 07:19:00,31.5,-2.0,29.88,NW,305,4.0,8.1,23,0.00,,---,0.00,VWS V14.01,2013-03-05 12:19:00,
2013-03-05 07:24:00,31.6,-1.9,29.88,NW,320,3.1,5.4,23,0.00,,---,0.00,VWS V14.01,2013-03-05 12:24:00,
2013-03-05 07:29:00,32.4,-1.3,29.91,NW,318,4.0,4.0,23,0.00,,---,0.00,VWS V14.01,2013-03-05 12:29:00,
2013-03-05 07:34:00,32.7,-1.0,29.91,NNW,331,4.9,4.9,23,0.00,,---,0.00,VWS V14.01,2013-03-05 12:34:00,
2013-03-05 07:39:00,33.3,-0.5,29.91,West,280,2.7,4.9,23,0.00,,---,0.00,VWS V14.01,2013-03-05 12:39:00,
2013-03-05 07:44:00,33.3,-0.5,29.91,WNW,301,5.4,5.8,23,0.00,,---,0.00,VWS V14.01,2013-03-05 12:44:00,
2013-03-05 07:49:00,34.0,-0.9,29.91,NW,309,4.0,4.0,22,0.00,,---,0.00,VWS V14.01,2013-03-05 12:49:00,
2013-03-05 07:54:00,34.0,-0.9,29.91,WNW,290,4.0,4.0,22,0.00,,---,0.00,VWS V14.01,2013-03-05 12:54:00,
2013-03-05 07:59:00,34.0,-0.9,29.91,NW,319,5.8,6.3,22,0.00,,---,0.00,VWS V14.01,2013-03-05 12:59:00,
2013-03-05 08:04:00,34.3,-0.6,29.91,WNW,303,3.6,3.6,22,0.00,,---,0.00,VWS V14.01,2013-03-05 13:04:00,
2013-03-05 08:09:00,34.5,-2.4,29.91,NW,326,2.7,5.4,20,0.00,,---,0.00,VWS V14.01,2013-03-05 13:09:00,
2013-03-05 08:14:00,34.7,-2.3,29.91,WNW,303,5.4,6.3,20,0.00,,---,0.00,VWS V14.01,2013-03-05 13:14:00,
2013-03-05 08:19:00,35.2,-1.8,29.91,NW,306,6.3,6.3,20,0.00,,---,0.00,VWS V14.01,2013-03-05 13:19:00,
2013-03-05 08:24:00,34.9,-2.1,29.91,NW,325,7.6,7.6,20,0.00,,---,0.00,VWS V14.01,2013-03-05 13:24:00,
2013-03-05 08:29:00,36.5,-1.8,29.91,NW,318,2.2,4.0,19,0.00,,---,0.00,VWS V14.01,2013-03-05 13:29:00,
2013-03-05 08:34:00,35.2,-1.8,29.91,NNW,337,8.1,8.3,20,0.00,,---,0.00,VWS V14.01,2013-03-05 13:34:00,
2013-03-05 08:39:00,35.4,-1.6,29.91,WNW,294,5.4,8.3,20,0.00,,---,0.00,VWS V14.01,2013-03-05 13:39:00,
2013-03-05 08:44:00,36.3,-2.0,29.94,West,280,5.4,5.4,19,0.00,,---,0.00,VWS V14.01,2013-03-05 13:44:00,
2013-03-05 08:49:00,35.8,-2.4,29.94,NW,317,6.3,6.3,19,0.00,,---,0.00,VWS V14.01,2013-03-05 13:49:00,
2013-03-05 08:54:00,36.1,-2.1,29.94,North,350,4.0,5.8,19,0.00,,---,0.00,VWS V14.01,2013-03-05 13:54:00,
2013-03-05 08:59:00,38.5,-0.2,29.91,West,278,3.1,3.1,19,0.00,,---,0.00,VWS V14.01,2013-03-05 13:59:00,
2013-03-05 09:04:00,37.6,-0.9,29.91,North,1,5.4,8.7,19,0.00,,---,0.00,VWS V14.01,2013-03-05 14:04:00,
2013-03-05 09:09:00,37.9,-0.6,29.91,NNW,330,6.3,7.6,19,0.00,,---,0.00,VWS V14.01,2013-03-05 14:09:00,
2013-03-05 09:14:00,37.8,-0.8,29.91,North,357,6.3,7.6,19,0.00,,---,0.00,VWS V14.01,2013-03-05 14:14:00,
2013-03-05 09:19:00,37.2,-1.2,29.91,NE,50,5.4,5.8,19,0.00,,---,0.00,VWS V14.01,2013-03-05 14:19:00,
2013-03-05 09:24:00,37.0,-1.4,29.91,NNW,333,3.1,4.9,19,0.00,,---,0.00,VWS V14.01,2013-03-05 14:24:00,
2013-03-05 09:29:00,38.5,-0.2,29.91,NE,41,5.8,5.8,19,0.00,,---,0.00,VWS V14.01,2013-03-05 14:29:00,
2013-03-05 09:34:00,39.0,0.3,29.91,NE,36,2.7,4.0,19,0.00,,---,0.00,VWS V14.01,2013-03-05 14:34:00,
2013-03-05 09:39:00,38.1,-0.5,29.91,NNE,21,5.8,6.3,19,0.00,,---,0.00,VWS V14.01,2013-03-05 14:39:00,
2013-03-05 09:44:00,39.7,-0.3,29.88,North,11,5.8,5.8,18,0.00,,---,0.00,VWS V14.01,2013-03-05 14:44:00,
2013-03-05 09:49:00,38.1,-0.5,29.88,NW,319,7.6,7.6,19,0.00,,---,0.00,VWS V14.01,2013-03-05 14:49:00,
2013-03-05 09:54:00,39.7,3.0,29.88,WNW,297,8.3,8.3,21,0.00,,---,0.00,VWS V14.01,2013-03-05 14:54:00,
2013-03-05 09:59:00,41.0,4.1,29.91,WNW,297,4.0,5.4,21,0.00,,---,0.00,VWS V14.01,2013-03-05 14:59:00,
2013-03-05 10:04:00,41.0,0.8,29.91,NE,37,5.8,5.8,18,0.00,,---,0.00,VWS V14.01,2013-03-05 15:04:00,
2013-03-05 10:09:00,41.4,1.0,29.91,North,0,6.3,6.3,18,0.00,,---,0.00,VWS V14.01,2013-03-05 15:09:00,
2013-03-05 10:14:00,43.7,5.3,29.88,WNW,286,0.0,0.0,20,0.00,,---,0.00,VWS V14.01,2013-03-05 15:14:00,
2013-03-05 10:19:00,42.4,5.3,29.88,WNW,301,6.3,6.3,21,0.00,,---,0.00,VWS V14.01,2013-03-05 15:19:00,
2013-03-05 10:24:00,44.1,5.6,29.88,WNW,284,4.0,4.0,20,0.00,,---,0.00,VWS V14.01,2013-03-05 15:24:00,
2013-03-05 10:29:00,43.3,5.0,29.91,North,357,4.0,4.0,20,0.00,,---,0.00,VWS V14.01,2013-03-05 15:29:00,
2013-03-05 10:34:00,43.3,5.0,29.91,West,277,4.0,5.8,20,0.00,,---,0.00,VWS V14.01,2013-03-05 15:34:00,
2013-03-05 10:39:00,46.9,6.8,29.91,WNW,292,0.0,2.7,19,0.00,,---,0.00,VWS V14.01,2013-03-05 15:39:00,
2013-03-05 10:44:00,49.1,8.6,29.88,WSW,253,4.0,4.0,19,0.00,,---,0.00,VWS V14.01,2013-03-05 15:44:00,
2013-03-05 10:49:00,45.0,6.3,29.88,NW,305,6.7,6.7,20,0.00,,---,0.00,VWS V14.01,2013-03-05 15:49:00,
2013-03-05 10:54:00,43.0,4.7,29.88,WNW,300,3.6,4.9,20,0.00,,---,0.00,VWS V14.01,2013-03-05 15:54:00,
2013-03-05 10:59:00,43.5,5.1,29.88,WNW,282,3.6,6.3,20,0.00,,---,0.00,VWS V14.01,2013-03-05 15:59:00,
2013-03-05 11:04:00,46.0,7.2,29.88,West,264,3.1,5.4,20,0.00,,---,0.00,VWS V14.01,2013-03-05 16:04:00,
2013-03-05 11:09:00,50.2,9.5,29.88,West,261,2.7,3.1,19,0.00,,---,0.00,VWS V14.01,2013-03-05 16:09:00,
2013-03-05 11:14:00,53.2,10.9,29.91,WNW,284,3.1,3.6,18,0.00,,---,0.00,VWS V14.01,2013-03-05 16:14:00,
2013-03-05 11:19:00,47.8,7.6,29.91,WNW,291,5.4,5.4,19,0.00,,---,0.00,VWS V14.01,2013-03-05 16:19:00,
2013-03-05 11:24:00,49.3,8.8,29.91,WSW,258,3.6,3.6,19,0.00,,---,0.00,VWS V14.01,2013-03-05 16:24:00,
2013-03-05 11:29:00,48.9,8.5,29.88,NNW,334,5.4,5.4,19,0.00,,---,0.00,VWS V14.01,2013-03-05 16:29:00,
2013-03-05 11:34:00,49.8,9.2,29.88,WNW,298,0.0,0.0,19,0.00,,---,0.00,VWS V14.01,2013-03-05 16:34:00,
2013-03-05 11:39:00,46.2,7.4,29.88,NW,305,3.1,5.4,20,0.00,,---,0.00,VWS V14.01,2013-03-05 16:39:00,
2013-03-05 11:44:00,45.1,6.5,29.88,NNE,16,4.0,8.1,20,0.00,,---,0.00,VWS V14.01,2013-03-05 16:44:00,
2013-03-05 11:49:00,46.2,7.4,29.88,ENE,78,6.7,6.7,20,0.00,,---,0.00,VWS V14.01,2013-03-05 16:49:00,
2013-03-05 11:54:00,43.7,3.0,29.88,ENE,73,7.6,7.6,18,0.00,,---,0.00,VWS V14.01,2013-03-05 16:54:00,
2013-03-05 11:59:00,44.8,6.2,29.88,NNE,27,6.3,6.3,20,0.00,,---,0.00,VWS V14.01,2013-03-05 16:59:00,
2013-03-05 12:04:00,46.4,6.4,29.88,NNE,16,4.9,5.4,19,0.00,,---,0.00,VWS V14.01,2013-03-05 17:04:00,
2013-03-05 12:09:00,49.5,8.9,29.88,NE,43,5.4,5.4,19,0.00,,---,0.00,VWS V14.01,2013-03-05 17:09:00,
2013-03-05 12:14:00,47.1,7.0,29.85,WNW,299,4.0,4.9,19,0.00,,---,0.00,VWS V14.01,2013-03-05 17:14:00,
2013-03-05 12:19:00,47.1,7.0,29.85,NNW,335,6.3,6.3,19,0.00,,---,0.00,VWS V14.01,2013-03-05 17:19:00,
2013-03-05 12:24:00,50.0,9.4,29.85,WNW,295,0.0,3.1,19,0.00,,---,0.00,VWS V14.01,2013-03-05 17:24:00,
2013-03-05 12:29:00,48.4,8.0,29.88,WNW,301,4.0,6.3,19,0.00,,---,0.00,VWS V14.01,2013-03-05 17:29:00,
2013-03-05 12:34:00,49.1,8.6,29.88,NW,313,6.3,8.7,19,0.00,,---,0.00,VWS V14.01,2013-03-05 17:34:00,
2013-03-05 12:39:00,48.0,7.7,29.88,ENE,65,3.6,4.9,19,0.00,,---,0.00,VWS V14.01,2013-03-05 17:39:00,
2013-03-05 12:43:00,49.8,9.2,29.85,WNW,299,5.4,5.8,19,0.00,,---,0.00,VWS V14.01,2013-03-05 17:43:00,
2013-03-05 12:48:00,49.5,8.9,29.85,West,278,4.0,5.4,19,0.00,,---,0.00,VWS V14.01,2013-03-05 17:48:00,
2013-03-05 12:53:00,50.2,9.5,29.85,North,7,3.1,7.6,19,0.00,,---,0.00,VWS V14.01,2013-03-05 17:53:00,
2013-03-05 12:58:00,47.1,7.0,29.88,East,79,4.0,5.4,19,0.00,,---,0.00,VWS V14.01,2013-03-05 17:58:00,
2013-03-05 13:03:00,47.3,7.1,29.88,NNE,21,2.7,5.4,19,0.00,,---,0.00,VWS V14.01,2013-03-05 18:03:00,
2013-03-05 13:08:00,48.7,8.3,29.88,NW,318,3.6,5.8,19,0.00,,---,0.00,VWS V14.01,2013-03-05 18:08:00,
2013-03-05 13:13:00,54.3,11.7,29.85,WSW,248,0.0,3.6,18,0.00,,---,0.00,VWS V14.01,2013-03-05 18:13:00,
2013-03-05 13:18:00,50.0,9.4,29.85,NW,310,2.7,5.4,19,0.00,,---,0.00,VWS V14.01,2013-03-05 18:18:00,
2013-03-05 13:23:00,52.3,10.1,29.85,WSW,253,5.4,7.2,18,0.00,,---,0.00,VWS V14.01,2013-03-05 18:23:00,
2013-03-05 13:28:00,55.0,12.3,29.85,NW,305,2.7,3.6,18,0.00,,---,0.00,VWS V14.01,2013-03-05 18:28:00,
2013-03-05 13:33:00,55.8,11.6,29.85,ENE,77,2.7,2.7,17,0.00,,---,0.00,VWS V14.01,2013-03-05 18:33:00,
2013-03-05 13:38:00,53.8,11.3,29.85,SSW,208,0.0,4.0,18,0.00,,---,0.00,VWS V14.01,2013-03-05 18:38:00,
2013-03-05 13:43:00,53.6,11.1,29.85,North,1,0.0,5.4,18,0.00,,---,0.00,VWS V14.01,2013-03-05 18:43:00,
2013-03-05 13:48:00,51.4,10.6,29.85,NNW,337,4.0,5.4,19,0.00,,---,0.00,VWS V14.01,2013-03-05 18:48:00,
2013-03-05 13:53:00,50.9,10.1,29.85,NE,42,5.8,5.8,19,0.00,,---,0.00,VWS V14.01,2013-03-05 18:53:00,
2013-03-05 13:58:00,54.5,11.9,29.85,West,263,0.0,2.7,18,0.00,,---,0.00,VWS V14.01,2013-03-05 18:58:00,
2013-03-05 14:03:00,52.3,10.1,29.85,NW,313,3.1,3.1,18,0.00,,---,0.00,VWS V14.01,2013-03-05 19:03:00,
2013-03-05 14:08:00,53.2,10.9,29.85,WNW,296,4.0,4.0,18,0.00,,---,0.00,VWS V14.01,2013-03-05 19:08:00,
2013-03-05 14:13:00,52.7,10.4,29.85,WNW,295,0.0,3.1,18,0.00,,---,0.00,VWS V14.01,2013-03-05 19:13:00,
2013-03-05 14:18:00,49.5,8.9,29.85,NE,48,5.4,5.8,19,0.00,,---,0.00,VWS V14.01,2013-03-05 19:18:00,
2013-03-05 14:23:00,48.6,8.2,29.85,NNE,31,3.6,5.4,19,0.00,,---,0.00,VWS V14.01,2013-03-05 19:23:00,
2013-03-05 14:28:00,48.9,8.5,29.83,SE,137,2.7,3.6,19,0.00,,---,0.00,VWS V14.01,2013-03-05 19:28:00,
2013-03-05 14:33:00,47.8,7.6,29.83,SSE,153,4.9,4.9,19,0.00,,---,0.00,VWS V14.01,2013-03-05 19:33:00,
2013-03-05 14:38:00,47.5,7.3,29.83,NE,47,7.2,7.2,19,0.00,,---,0.00,VWS V14.01,2013-03-05 19:38:00,
2013-03-05 14:43:00,49.5,8.9,29.83,NNW,342,4.9,4.9,19,0.00,,---,0.00,VWS V14.01,2013-03-05 19:43:00,
2013-03-05 14:48:00,47.7,7.4,29.83,NW,318,5.4,5.4,19,0.00,,---,0.00,VWS V14.01,2013-03-05 19:48:00,
2013-03-05 14:53:00,49.3,8.8,29.83,NNW,333,4.0,4.0,19,0.00,,---,0.00,VWS V14.01,2013-03-05 19:53:00,
2013-03-05 14:58:00,48.6,8.2,29.85,NW,322,4.9,4.9,19,0.00,,---,0.00,VWS V14.01,2013-03-05 19:58:00,
2013-03-05 15:03:00,50.0,9.4,29.85,SW,216,4.0,4.0,19,0.00,,---,0.00,VWS V14.01,2013-03-05 20:03:00,
2013-03-05 15:08:00,50.2,9.5,29.85,South,189,2.7,4.0,19,0.00,,---,0.00,VWS V14.01,2013-03-05 20:08:00,
2013-03-05 15:13:00,47.7,7.4,29.83,ESE,122,3.6,3.6,19,0.00,,---,0.00,VWS V14.01,2013-03-05 20:13:00,
2013-03-05 15:18:00,46.0,7.2,29.83,ESE,122,7.6,7.6,20,0.00,,---,0.00,VWS V14.01,2013-03-05 20:18:00,
2013-03-05 15:23:00,46.0,3.7,29.83,ESE,113,6.3,6.3,17,0.00,,---,0.00,VWS V14.01,2013-03-05 20:23:00,
2013-03-05 15:28:00,45.9,3.5,29.83,SSE,155,5.8,8.3,17,0.00,,---,0.00,VWS V14.01,2013-03-05 20:28:00,
2013-03-05 15:33:00,45.9,3.5,29.83,SE,135,5.8,6.3,17,0.00,,---,0.00,VWS V14.01,2013-03-05 20:33:00,
2013-03-05 15:38:00,45.9,3.5,29.83,ESE,119,8.3,8.3,17,0.00,,---,0.00,VWS V14.01,2013-03-05 20:38:00,
2013-03-05 15:43:00,45.5,3.2,29.83,SE,135,3.1,5.4,17,0.00,,---,0.00,VWS V14.01,2013-03-05 20:43:00,
2013-03-05 15:48:00,45.3,3.1,29.83,ESE,114,6.3,6.3,17,0.00,,---,0.00,VWS V14.01,2013-03-05 20:48:00,
2013-03-05 15:53:00,45.3,3.1,29.83,South,169,2.7,3.1,17,0.00,,---,0.00,VWS V14.01,2013-03-05 20:53:00,
2013-03-05 15:58:00,45.3,3.1,29.83,ENE,69,7.6,7.6,17,0.00,,---,0.00,VWS V14.01,2013-03-05 20:58:00,
2013-03-05 16:03:00,45.3,3.1,29.83,SE,131,3.1,8.7,17,0.00,,---,0.00,VWS V14.01,2013-03-05 21:03:00,
2013-03-05 16:08:00,45.9,3.5,29.83,ESE,102,7.6,8.1,17,0.00,,---,0.00,VWS V14.01,2013-03-05 21:08:00,
2013-03-05 16:13:00,45.1,2.9,29.83,ESE,110,2.7,4.0,17,0.00,,---,0.00,VWS V14.01,2013-03-05 21:13:00,
2013-03-05 16:18:00,45.1,2.9,29.83,East,87,4.0,5.4,17,0.00,,---,0.00,VWS V14.01,2013-03-05 21:18:00,
2013-03-05 16:23:00,45.7,3.4,29.83,South,176,2.7,3.6,17,0.00,,---,0.00,VWS V14.01,2013-03-05 21:23:00,
2013-03-05 16:28:00,45.1,2.9,29.83,ESE,104,2.7,4.0,17,0.00,,---,0.00,VWS V14.01,2013-03-05 21:28:00,
2013-03-05 16:33:00,44.8,2.6,29.83,SE,128,3.1,3.1,17,0.00,,---,0.00,VWS V14.01,2013-03-05 21:33:00,
2013-03-05 16:38:00,45.5,3.2,29.83,South,173,5.8,5.8,17,0.00,,---,0.00,VWS V14.01,2013-03-05 21:38:00,
2013-03-05 16:43:00,45.5,3.2,29.85,South,170,2.2,2.2,17,0.00,,---,0.00,VWS V14.01,2013-03-05 21:43:00,
2013-03-05 16:48:00,45.1,2.9,29.85,South,170,0.0,0.0,17,0.00,,---,0.00,VWS V14.01,2013-03-05 21:48:00,
2013-03-05 16:53:00,45.9,3.5,29.85,SW,223,0.0,3.6,17,0.00,,---,0.00,VWS V14.01,2013-03-05 21:53:00,
2013-03-05 16:58:00,46.0,7.2,29.85,SSE,147,4.0,4.0,20,0.00,,---,0.00,VWS V14.01,2013-03-05 21:58:00,
2013-03-05 17:03:00,45.7,3.4,29.85,SSW,212,3.6,4.0,17,0.00,,---,0.00,VWS V14.01,2013-03-05 22:03:00,
2013-03-05 17:08:00,45.1,2.9,29.85,SSE,147,3.1,5.4,17,0.00,,---,0.00,VWS V14.01,2013-03-05 22:08:00,
2013-03-05 17:13:00,44.8,2.6,29.85,SSE,161,2.2,3.6,17,0.00,,---,0.00,VWS V14.01,2013-03-05 22:13:00,
2013-03-05 17:18:00,44.8,2.6,29.85,East,95,3.1,3.1,17,0.00,,---,0.00,VWS V14.01,2013-03-05 22:18:00,
2013-03-05 17:23:00,44.8,2.6,29.85,East,80,3.6,3.6,17,0.00,,---,0.00,VWS V14.01,2013-03-05 22:23:00,
2013-03-05 17:28:00,44.4,3.6,29.85,East,90,2.7,3.1,18,0.00,,---,0.00,VWS V14.01,2013-03-05 22:28:00,
2013-03-05 17:33:00,43.9,3.1,29.85,SE,144,4.5,4.5,18,0.00,,---,0.00,VWS V14.01,2013-03-05 22:33:00,
2013-03-05 17:38:00,43.2,2.5,29.85,SE,144,2.7,3.1,18,0.00,,---,0.00,VWS V14.01,2013-03-05 22:38:00,
2013-03-05 17:43:00,42.1,1.6,29.85,SSE,166,2.7,3.6,18,0.00,,---,0.00,VWS V14.01,2013-03-05 22:43:00,
2013-03-05 17:48:00,41.9,1.5,29.85,SSE,167,3.6,3.6,18,0.00,,---,0.00,VWS V14.01,2013-03-05 22:48:00,
2013-03-05 17:52:00,41.7,1.4,29.85,South,185,2.7,3.1,18,0.00,,---,0.00,VWS V14.01,2013-03-05 22:52:00,
2013-03-05 17:57:00,41.4,1.0,29.85,SSW,192,2.2,3.6,18,0.00,,---,0.00,VWS V14.01,2013-03-05 22:57:00,
2013-03-05 18:02:00,40.5,0.3,29.85,SSW,192,0.0,0.0,18,0.00,,---,0.00,VWS V14.01,2013-03-05 23:02:00,
2013-03-05 18:07:00,39.9,-0.1,29.85,SSW,192,0.0,0.0,18,0.00,,---,0.00,VWS V14.01,2013-03-05 23:07:00,
2013-03-05 18:12:00,39.4,-0.6,29.85,SSW,192,0.0,0.0,18,0.00,,---,0.00,VWS V14.01,2013-03-05 23:12:00,
2013-03-05 18:17:00,39.4,-0.6,29.85,SSW,192,0.0,0.0,18,0.00,,---,0.00,VWS V14.01,2013-03-05 23:17:00,
2013-03-05 18:22:00,39.2,-0.7,29.85,SW,219,0.0,0.0,18,0.00,,---,0.00,VWS V14.01,2013-03-05 23:22:00,
2013-03-05 18:27:00,38.8,0.1,29.85,SW,221,0.0,0.0,19,0.00,,---,0.00,VWS V14.01,2013-03-05 23:27:00,
2013-03-05 18:32:00,38.1,-0.5,29.85,SW,221,0.0,0.0,19,0.00,,---,0.00,VWS V14.01,2013-03-05 23:32:00,
2013-03-05 18:37:00,38.1,-0.5,29.85,SW,221,0.0,0.0,19,0.00,,---,0.00,VWS V14.01,2013-03-05 23:37:00,
2013-03-05 18:42:00,38.3,-0.3,29.85,SW,221,0.0,0.0,19,0.00,,---,0.00,VWS V14.01,2013-03-05 23:42:00,
2013-03-05 18:47:00,38.1,-0.5,29.85,SW,221,0.0,0.0,19,0.00,,---,0.00,VWS V14.01,2013-03-05 23:47:00,
2013-03-05 18:52:00,37.6,-0.9,29.85,SW,221,0.0,0.0,19,0.00,,---,0.00,VWS V14.01,2013-03-05 23:52:00,
2013-03-05 18:57:00,37.4,-1.1,29.85,SW,221,0.0,0.0,19,0.00,,---,0.00,VWS V14.01,2013-03-05 23:57:00,
2013-03-05 19:02:00,37.4,1.0,29.85,SW,221,0.0,0.0,21,0.00,,---,0.00,VWS V14.01,2013-03-06 00:02:00,
2013-03-05 19:07:00,37.0,1.7,29.85,SSW,205,0.0,0.0,22,0.00,,---,0.00,VWS V14.01,2013-03-06 00:07:00,
2013-03-05 19:12:00,37.6,-0.9,29.85,South,188,0.0,0.0,19,0.00,,---,0.00,VWS V14.01,2013-03-06 00:12:00,
2013-03-05 19:17:00,37.6,-0.9,29.85,South,191,4.0,4.0,19,0.00,,---,0.00,VWS V14.01,2013-03-06 00:17:00,
2013-03-05 19:22:00,37.8,-0.8,29.85,South,191,3.1,3.6,19,0.00,,---,0.00,VWS V14.01,2013-03-06 00:22:00,
2013-03-05 19:27:00,37.8,-0.8,29.85,South,182,3.1,3.6,19,0.00,,---,0.00,VWS V14.01,2013-03-06 00:27:00,
2013-03-05 19:32:00,37.9,-0.6,29.85,South,171,4.0,4.0,19,0.00,,---,0.00,VWS V14.01,2013-03-06 00:32:00,
2013-03-05 19:37:00,38.5,2.0,29.85,SE,146,3.1,4.0,21,0.00,,---,0.00,VWS V14.01,2013-03-06 00:37:00,
2013-03-05 19:42:00,38.7,2.1,29.85,SSE,168,8.1,8.1,21,0.00,,---,0.00,VWS V14.01,2013-03-06 00:42:00,
2013-03-05 19:47:00,39.0,2.4,29.85,SSE,164,8.7,8.7,21,0.00,,---,0.00,VWS V14.01,2013-03-06 00:47:00,
2013-03-05 19:52:00,38.7,2.1,29.85,South,178,3.6,5.8,21,0.00,,---,0.00,VWS V14.01,2013-03-06 00:52:00,
2013-03-05 19:57:00,38.1,1.6,29.85,SSW,193,8.3,8.3,21,0.00,,---,0.00,VWS V14.01,2013-03-06 00:57:00,
2013-03-05 20:02:00,37.9,4.4,29.85,SSW,192,6.3,6.3,24,0.00,,---,0.00,VWS V14.01,2013-03-06 01:02:00,
2013-03-05 20:07:00,37.6,4.1,29.85,South,182,5.8,8.1,24,0.00,,---,0.00,VWS V14.01,2013-03-06 01:07:00,
2013-03-05 20:12:00,37.2,3.8,29.85,South,183,7.6,8.3,24,0.00,,---,0.00,VWS V14.01,2013-03-06 01:12:00,
2013-03-05 20:17:00,37.4,3.9,29.85,SSW,195,6.3,6.3,24,0.00,,---,0.00,VWS V14.01,2013-03-06 01:17:00,
2013-03-05 20:22:00,36.9,3.5,29.85,South,185,6.3,6.3,24,0.00,,---,0.00,VWS V14.01,2013-03-06 01:22:00,
2013-03-05 20:27:00,37.0,3.6,29.85,South,180,5.8,8.1,24,0.00,,---,0.00,VWS V14.01,2013-03-06 01:27:00,
2013-03-05 20:32:00,36.9,3.5,29.85,South,191,3.6,5.8,24,0.00,,---,0.00,VWS V14.01,2013-03-06 01:32:00,
2013-03-05 20:37:00,36.9,3.5,29.85,South,183,4.0,4.0,24,0.00,,---,0.00,VWS V14.01,2013-03-06 01:37:00,
2013-03-05 20:42:00,36.9,1.6,29.85,South,183,5.4,6.3,22,0.00,,---,0.00,VWS V14.01,2013-03-06 01:42:00,
2013-03-05 20:47:00,36.9,1.6,29.85,South,185,4.9,7.6,22,0.00,,---,0.00,VWS V14.01,2013-03-06 01:47:00,
2013-03-05 20:52:00,36.7,1.4,29.85,SSW,196,6.3,6.3,22,0.00,,---,0.00,VWS V14.01,2013-03-06 01:52:00,
2013-03-05 20:57:00,36.9,1.6,29.88,South,173,4.9,6.3,22,0.00,,---,0.00,VWS V14.01,2013-03-06 01:57:00,
2013-03-05 21:02:00,36.7,3.3,29.88,SSE,153,5.4,5.4,24,0.00,,---,0.00,VWS V14.01,2013-03-06 02:02:00,
2013-03-05 21:07:00,37.0,3.6,29.88,South,170,7.2,7.6,24,0.00,,---,0.00,VWS V14.01,2013-03-06 02:07:00,
2013-03-05 21:12:00,36.9,3.5,29.85,SSW,198,4.9,5.4,24,0.00,,---,0.00,VWS V14.01,2013-03-06 02:12:00,
2013-03-05 21:17:00,36.9,3.5,29.85,SE,129,8.3,8.3,24,0.00,,---,0.00,VWS V14.01,2013-03-06 02:17:00,
2013-03-05 21:22:00,36.7,3.3,29.85,South,180,4.5,4.9,24,0.00,,---,0.00,VWS V14.01,2013-03-06 02:22:00,
2013-03-05 21:27:00,36.9,3.5,29.85,South,174,8.1,8.1,24,0.00,,---,0.00,VWS V14.01,2013-03-06 02:27:00,
2013-03-05 21:32:00,36.7,5.9,29.85,SSE,165,5.8,6.3,27,0.00,,---,0.00,VWS V14.01,2013-03-06 02:32:00,
2013-03-05 21:37:00,36.9,7.6,29.85,SSE,164,5.4,6.3,29,0.00,,---,0.00,VWS V14.01,2013-03-06 02:37:00,
2013-03-05 21:42:00,36.7,8.2,29.85,SSE,151,6.3,6.3,30,0.00,,---,0.00,VWS V14.01,2013-03-06 02:42:00,
2013-03-05 21:47:00,37.0,9.9,29.85,SE,143,7.6,8.7,32,0.00,,---,0.00,VWS V14.01,2013-03-06 02:47:00,
2013-03-05 21:52:00,37.0,11.3,29.85,SE,137,12.8,12.8,34,0.00,,---,0.00,VWS V14.01,2013-03-06 02:52:00,
2013-03-05 21:57:00,37.2,12.1,29.85,SSE,150,10.5,10.5,35,0.00,,---,0.00,VWS V14.01,2013-03-06 02:57:00,
2013-03-05 22:02:00,37.0,13.2,29.85,SSE,149,5.4,6.3,37,0.00,,---,0.00,VWS V14.01,2013-03-06 03:02:00,
2013-03-05 22:07:00,37.2,13.4,29.85,SE,139,6.3,8.7,37,0.00,,---,0.00,VWS V14.01,2013-03-06 03:07:00,
2013-03-05 22:12:00,37.2,14.0,29.85,SE,137,8.7,8.7,38,0.00,,---,0.00,VWS V14.01,2013-03-06 03:12:00,
2013-03-05 22:17:00,37.2,14.6,29.85,South,179,8.7,8.7,39,0.00,,---,0.00,VWS V14.01,2013-03-06 03:17:00,
2013-03-05 22:22:00,37.0,15.0,29.85,South,178,8.7,8.7,40,0.00,,---,0.00,VWS V14.01,2013-03-06 03:22:00,
2013-03-05 22:27:00,37.2,15.1,29.83,SSE,155,6.3,6.3,40,0.00,,---,0.00,VWS V14.01,2013-03-06 03:27:00,
2013-03-05 22:32:00,37.4,14.7,29.83,SE,126,8.3,8.3,39,0.00,,---,0.00,VWS V14.01,2013-03-06 03:32:00,
2013-03-05 22:37:00,37.4,14.7,29.83,SSE,157,6.3,6.3,39,0.00,,---,0.00,VWS V14.01,2013-03-06 03:37:00,
2013-03-05 22:42:00,37.4,15.3,29.83,SSE,148,5.8,7.6,40,0.00,,---,0.00,VWS V14.01,2013-03-06 03:42:00,
2013-03-05 22:47:00,37.4,15.3,29.83,SE,125,4.0,6.3,40,0.00,,---,0.00,VWS V14.01,2013-03-06 03:47:00,
2013-03-05 22:52:00,37.4,15.9,29.83,SE,142,4.0,5.8,41,0.00,,---,0.00,VWS V14.01,2013-03-06 03:52:00,
2013-03-05 22:57:00,37.6,16.0,29.83,SE,140,6.3,8.1,41,0.00,,---,0.00,VWS V14.01,2013-03-06 03:57:00,
2013-03-05 23:02:00,37.6,16.6,29.83,ESE,114,5.8,6.7,42,0.00,,---,0.00,VWS V14.01,2013-03-06 04:02:00,
2013-03-05 23:07:00,37.6,17.7,29.83,SE,141,7.6,7.6,44,0.00,,---,0.00,VWS V14.01,2013-03-06 04:07:00,
2013-03-05 23:12:00,37.8,19.9,29.83,SE,133,8.1,8.1,48,0.00,,---,0.00,VWS V14.01,2013-03-06 04:12:00,
2013-03-05 23:17:00,37.8,20.3,29.83,ESE,113,5.4,8.7,49,0.00,,---,0.00,VWS V14.01,2013-03-06 04:17:00,
2013-03-05 23:22:00,37.9,20.0,29.83,SE,146,6.7,8.7,48,0.00,,---,0.00,VWS V14.01,2013-03-06 04:22:00,
2013-03-05 23:27:00,37.8,19.9,29.80,SE,127,5.8,8.7,48,0.00,,---,0.00,VWS V14.01,2013-03-06 04:27:00,
2013-03-05 23:32:00,37.8,18.9,29.80,ESE,117,3.1,8.3,46,0.00,,---,0.00,VWS V14.01,2013-03-06 04:32:00,
2013-03-05 23:37:00,37.6,17.7,29.80,ESE,108,8.3,8.7,44,0.00,,---,0.00,VWS V14.01,2013-03-06 04:37:00,
2013-03-05 23:42:00,37.6,16.6,29.80,ESE,119,8.3,10.1,42,0.00,,---,0.00,VWS V14.01,2013-03-06 04:42:00,
2013-03-05 23:46:00,37.6,16.6,29.80,ESE,116,11.0,11.0,42,0.00,,---,0.00,VWS V14.01,2013-03-06 04:46:00,
2013-03-05 23:51:00,37.6,16.6,29.80,SE,129,4.9,7.6,42,0.00,,---,0.00,VWS V14.01,2013-03-06 04:51:00,
2013-03-05 23:56:00,37.6,16.6,29.80,ESE,115,8.3,10.1,42,0.00,,---,0.00,VWS V14.01,2013-03-06 04:56:00,